[[{"header":{"parameterUnit":"m.s-1","parameterCategory":1,"la1":30.2991,"la2":30.254,"lo1":-89.0895,"lo2":-89.0444,"dy":0.0017,"dx":0.0017,"nx":28,"ny":28,"refTime":"2025-11-20T03:00:00:Z","depth":0,"parameterNumber":2,"parameterNumberName":"U-component_of_WINDS"},"data":[0,0,0,0,0,0,0,0,0,0,0,0,0,0,0,0,0,0,0,0,0,0,0,0,0,0,0,0,0,0,0,0,0,0,0,0,0,0,0,0,0,0,0,0,0,0,0,0,0,0,0,0,0,0,0,0,0,0,0.3299,0.33,0,0.3388,0.3389,0.339,0.344,0.344,0.344,0.344,0.3531,0.3533,0.3535,0,0,0,0,0,0,0,0,0,0,0,0,0,0.3173,0.3175,0.3299,0.33,0.3301,0.3388,0.3389,0.339,0.344,0.344,0.344,0.344,0.353,0.3533,0.3536,0,0,0,0,0,0,0,0,0,0,0,0,0,0.3241,0.3176,0.3299,0.3337,0.3341,0.3387,0.3389,0.339,0.344,0.344,0.344,0.344,0.3529,0.3533,0.3536,0.3552,0,0,0.3546,0.3548,0,0,0,0,0,0,0,0,0.3237,0.3246,0.333,0.3334,0.3339,0.3403,0.3378,0.3445,0.344,0.3402,0.344,0.344,0.3488,0.3495,0.3511,0.3556,0.356,0.3547,0.3549,0.355,0.3551,0,0,0,0,0,0,0,0.3232,0.3242,0.3334,0.3331,0.3337,0.3349,0.3359,0.3391,0.3443,0.3405,0.3409,0.3419,0.3491,0.3508,0.3514,0.3562,0.3547,0.355,0.3552,0.3553,0.3624,0.3624,0,0,0,0,0,0,0.3222,0.3238,0.3331,0.3337,0.3288,0.3351,0.3362,0.3382,0.3442,0.3452,0.3419,0.3421,0.3502,0.351,0.3517,0.354,0.355,0.3553,0.3555,0.3624,0.3624,0.3624,0,0,0,0,0,0,0.3219,0.323,0.3328,0.3289,0.3302,0.3353,0.3375,0.3384,0.3401,0.3453,0.3462,0.3426,0.3502,0.3512,0.3543,0.3543,0.3555,0.3558,0.3625,0.3624,0.3624,0.3585,0,0,0,0,0,0,0.3215,0.3228,0.3235,0.3288,0.3304,0.3352,0.3375,0.3385,0.3406,0.341,0.3462,0.3471,0.3503,0.3538,0.3546,0.3548,0.3561,0.3625,0.3624,0.3624,0.3586,0.3583,0.358,0,0,0,0,0,0.321,0.322,0.3235,0.3246,0.3313,0.3352,0.3361,0.3398,0.3406,0.3413,0.3447,0.347,0.3542,0.354,0.3551,0.3553,0.3625,0.3624,0.3624,0.3587,0.3584,0.3581,0,0,0,0,0,0,0.3166,0.3228,0.3245,0.3273,0.3307,0.336,0.3371,0.3393,0.3425,0.3427,0.3471,0.3482,0.3509,0.3534,0.3532,0.3572,0.3586,0.3587,0.3554,0.3551,0.3548,0.3542,0.3563,0,0,0,0,0,0.3159,0.3186,0.3239,0.3258,0.3274,0.3319,0.3338,0.3363,0.34,0.3414,0.345,0.3485,0.3516,0.3535,0.3566,0.359,0.3602,0.3597,0.3594,0.3592,0.3593,0.3607,0.3605,0.3623,0.3623,0.3623,0,0,0.3146,0.3183,0.3197,0.325,0.3279,0.3305,0.3331,0.3358,0.3378,0.3419,0.345,0.3477,0.3519,0.3546,0.356,0.3568,0.359,0.3591,0.3589,0.3591,0.3606,0.3605,0.3603,0.3623,0.3623,0.3623,0,0,0.3135,0.3166,0.3185,0.3214,0.3258,0.3288,0.3292,0.3343,0.3363,0.3394,0.3425,0.345,0.3502,0.353,0.3552,0.3551,0.3573,0.356,0.3545,0.3558,0.3557,0.3556,0.3555,0.3555,0.3561,0.356,0.356,0,0.3113,0.3154,0.3192,0.3217,0.3239,0.3278,0.3297,0.3323,0.3375,0.3389,0.3398,0.3464,0.3495,0.3529,0.3529,0.3545,0.3551,0.3554,0.3554,0.3553,0.3553,0.3553,0.3553,0.3559,0.3559,0.3559,0.3559,0,0.3124,0.3152,0.3162,0.3211,0.3234,0.3256,0.3298,0.3317,0.334,0.3369,0.3401,0.3439,0.3479,0.3489,0.3512,0.3526,0.353,0.3546,0.356,0.3549,0.3549,0.355,0.3556,0.3556,0.3557,0.3558,0,0,0.3088,0.3158,0.3161,0.3183,0.3234,0.3256,0.328,0.3319,0.3334,0.3368,0.3389,0.3432,0.3446,0.3471,0.3497,0.3509,0.3505,0.3523,0.3525,0.3518,0.3523,0.351,0.351,0.352,0.352,0.352,0.3519,0,0.3084,0.3128,0.3164,0.3195,0.3221,0.3257,0.3278,0.3311,0.3339,0.3365,0.3395,0.3425,0.3442,0.3457,0.347,0.3503,0.3507,0.3503,0.354,0.3541,0.3528,0.351,0.3497,0.3494,0.352,0.352,0.352,0,0.3086,0.3118,0.3152,0.32,0.3212,0.323,0.3268,0.3292,0.3331,0.335,0.3376,0.3404,0.343,0.3442,0.3479,0.3476,0.3493,0.3511,0.3512,0.3517,0.3529,0.3514,0.3494,0.3494,0.3521,0.3521,0.3521,0,0.3055,0.3107,0.3134,0.3152,0.3209,0.3221,0.3245,0.3284,0.3305,0.3338,0.3352,0.3387,0.3407,0.3433,0.347,0.3475,0.3503,0.3518,0.3519,0.3518,0.3523,0.3522,0.3505,0.3534,0.3534,0.3534,0.3534,0,0.3047,0.3066,0.3121,0.3138,0.316,0.32,0.3221,0.3248,0.3283,0.3305,0.3339,0.3359,0.3405,0.3431,0.346,0.3486,0.3494,0.351,0.3518,0.3507,0.3505,0.3519,0.352,0.3534,0.3534,0.3534,0.3534,0,0.3016,0.3054,0.3086,0.3137,0.315,0.3164,0.3208,0.3225,0.3255,0.3282,0.3291,0.3337,0.3369,0.3408,0.3452,0.3471,0.3494,0.3506,0.3481,0.3485,0.3484,0.3483,0.3475,0.3476,0.3505,0.3504,0.3504,0,0.3008,0.3024,0.3077,0.3094,0.3117,0.3144,0.3166,0.3206,0.3226,0.3271,0.3283,0.3317,0.3347,0.3396,0.3434,0.3468,0.348,0.3475,0.3485,0.3474,0.3479,0.3478,0.3479,0.3472,0.3471,0.3471,0.347,0,0.299,0.3008,0.3037,0.3073,0.3097,0.3127,0.3158,0.3171,0.3217,0.3239,0.3272,0.3295,0.334,0.3374,0.3412,0.3437,0.3461,0.3467,0.3469,0.3458,0.3443,0.3451,0.3473,0.3467,0.3467,0.3467,0.3468,0.3468,0.2971,0.2986,0.3025,0.3056,0.3084,0.3113,0.3131,0.3163,0.3191,0.3231,0.3253,0.3285,0.3323,0.3377,0.3402,0.3427,0.3436,0.3439,0.344,0.344,0.3436,0.3439,0.3435,0.3435,0.3435,0.3435,0.3435,0,0.2954,0.2981,0.3009,0.3052,0.3076,0.3097,0.3133,0.3152,0.3179,0.3213,0.3241,0.3279,0.3311,0.3351,0.3386,0.3399,0.3411,0.3407,0.3406,0.3412,0.3427,0.3421,0.3397,0.3397,0.3397,0.3397,0.3397,0.3397,0.2948,0.2974,0.2997,0.3037,0.3064,0.3096,0.3115,0.3141,0.3168,0.3208,0.3235,0.3261,0.3297,0.3335,0.3366,0.3377,0.3388,0.338,0.3394,0.3407,0.3411,0.3414,0.3409,0.3383,0.3382,0.3377,0.3377,0.3377]},{"header":{"parameterUnit":"m.s-1","parameterCategory":1,"la1":30.2991,"la2":30.254,"lo1":-89.0895,"lo2":-89.0444,"dy":0.0017,"dx":0.0017,"nx":28,"ny":28,"refTime":"2025-11-20T03:00:00:Z","depth":0,"parameterNumber":3,"parameterNumberName":"V-component_of_WINDS"},"data":[0,0,0,0,0,0,0,0,0,0,0,0,0,0,0,0,0,0,0,0,0,0,0,0,0,0,0,0,0,0,0,0,0,0,0,0,0,0,0,0,0,0,0,0,0,0,0,0,0,0,0,0,0,0,0,0,0,0,1.5747,1.5747,0,1.5735,1.5735,1.5735,1.5711,1.571,1.571,1.5709,1.5696,1.5696,1.5696,0,0,0,0,0,0,0,0,0,0,0,0,0,1.5749,1.5749,1.5747,1.5747,1.5747,1.5735,1.5735,1.5735,1.5711,1.571,1.571,1.5709,1.5696,1.5696,1.5696,0,0,0,0,0,0,0,0,0,0,0,0,0,1.5744,1.5749,1.5747,1.5734,1.5732,1.5735,1.5735,1.5735,1.5711,1.571,1.571,1.5709,1.5696,1.5696,1.5696,1.571,0,0,1.5696,1.5696,0,0,0,0,0,0,0,0,1.5744,1.5744,1.5736,1.5735,1.5733,1.5724,1.5731,1.5727,1.5711,1.5719,1.5709,1.5709,1.5706,1.5705,1.5704,1.571,1.5709,1.5696,1.5696,1.5696,1.5696,0,0,0,0,0,0,0,1.5745,1.5744,1.5742,1.5736,1.5734,1.5728,1.5726,1.573,1.5716,1.5718,1.5717,1.5716,1.5705,1.5704,1.5703,1.5709,1.5696,1.5696,1.5696,1.5696,1.5728,1.5728,0,0,0,0,0,0,1.5747,1.5745,1.5743,1.5742,1.5737,1.5729,1.5727,1.5727,1.5716,1.5714,1.5716,1.5714,1.5704,1.5703,1.5703,1.572,1.5696,1.5696,1.5696,1.5727,1.5728,1.5729,0,0,0,0,0,0,1.5747,1.5747,1.5743,1.5743,1.5742,1.5729,1.573,1.5728,1.5727,1.5715,1.5712,1.5718,1.5704,1.5703,1.5709,1.572,1.5696,1.5696,1.5726,1.5727,1.5728,1.5755,0,0,0,0,0,0,1.5747,1.5747,1.5753,1.5743,1.5742,1.575,1.5731,1.5728,1.5727,1.5725,1.5716,1.5713,1.5703,1.5709,1.5709,1.5719,1.5697,1.5725,1.5727,1.5728,1.5753,1.5757,1.576,0,0,0,0,0,1.5748,1.576,1.5753,1.5753,1.5749,1.5751,1.575,1.5738,1.5728,1.5734,1.5726,1.5714,1.5718,1.571,1.571,1.572,1.5724,1.5726,1.5728,1.5751,1.5756,1.576,0,0,0,0,0,0,1.5771,1.5759,1.5751,1.5761,1.5757,1.5747,1.5753,1.5743,1.5742,1.5739,1.5724,1.5722,1.5731,1.5726,1.5717,1.5734,1.5719,1.5721,1.5737,1.5742,1.5745,1.5746,1.5697,0,0,0,0,0,1.5777,1.578,1.5769,1.5779,1.5777,1.5766,1.5766,1.5757,1.5753,1.5751,1.5743,1.5739,1.574,1.574,1.574,1.5752,1.575,1.5759,1.5763,1.5765,1.5767,1.5775,1.5779,1.5734,1.5734,1.5734,0,0,1.579,1.5784,1.5786,1.5783,1.5779,1.5783,1.5764,1.5768,1.5771,1.5751,1.5757,1.5752,1.5746,1.5756,1.576,1.5752,1.5779,1.5768,1.577,1.577,1.5777,1.5781,1.5785,1.5736,1.5735,1.5735,0,0,1.5815,1.5811,1.5819,1.5816,1.581,1.5803,1.5805,1.5796,1.5792,1.5798,1.5784,1.5786,1.5787,1.5784,1.5783,1.5808,1.5797,1.5809,1.5827,1.5834,1.5838,1.5841,1.5851,1.5855,1.581,1.581,1.581,0,1.5832,1.5837,1.5824,1.583,1.5829,1.5813,1.5821,1.5818,1.5813,1.5813,1.5804,1.5806,1.5801,1.581,1.5817,1.5816,1.5818,1.581,1.5838,1.5841,1.5844,1.5854,1.5857,1.5812,1.5812,1.5812,1.5811,0,1.5858,1.5862,1.5869,1.5866,1.5866,1.5873,1.5861,1.5863,1.5854,1.5848,1.5855,1.5848,1.5847,1.5848,1.5839,1.5857,1.5852,1.5841,1.5826,1.585,1.5859,1.5862,1.5814,1.5814,1.5813,1.5813,0,0,1.5897,1.5888,1.5891,1.589,1.5883,1.5885,1.5892,1.5891,1.5893,1.589,1.5896,1.5898,1.5888,1.5886,1.5877,1.5883,1.5906,1.5872,1.5871,1.5879,1.5926,1.5935,1.5939,1.5898,1.5899,1.5899,1.5927,0,1.5922,1.5933,1.5923,1.5936,1.594,1.5924,1.593,1.5926,1.592,1.5923,1.5916,1.5918,1.5904,1.5903,1.5909,1.5902,1.5915,1.59,1.5904,1.5904,1.5907,1.5944,1.5953,1.5979,1.593,1.593,1.5931,0,1.5952,1.5952,1.5966,1.596,1.5961,1.5966,1.5966,1.5968,1.5964,1.5959,1.5958,1.5947,1.5953,1.5938,1.5947,1.5937,1.5938,1.5935,1.5935,1.5936,1.5919,1.5946,1.5987,1.5991,1.5936,1.5936,1.5935,0,1.5981,1.5984,1.5993,1.5992,1.5985,1.5989,1.5986,1.5981,1.5982,1.5982,1.5982,1.5982,1.5982,1.5982,1.5972,1.5961,1.5982,1.5966,1.5979,1.5979,1.5984,1.5984,1.6027,1.5983,1.5983,1.5983,1.5983,0,1.601,1.602,1.6006,1.6012,1.6022,1.601,1.602,1.6015,1.6012,1.6016,1.6002,1.6007,1.5993,1.5996,1.5987,1.5997,1.5996,1.5993,1.5991,1.5995,1.5995,1.5996,1.5994,1.5984,1.5984,1.5984,1.5984,0,1.6044,1.6035,1.6044,1.6037,1.6036,1.6044,1.6037,1.6042,1.6036,1.6042,1.6042,1.6032,1.6035,1.6025,1.6026,1.6021,1.6034,1.6029,1.6036,1.6035,1.6049,1.6048,1.6094,1.6099,1.6052,1.6052,1.6052,0,1.6064,1.6071,1.6065,1.6067,1.6065,1.6069,1.607,1.6059,1.606,1.6057,1.6063,1.6065,1.6066,1.6072,1.6064,1.6065,1.606,1.6076,1.606,1.6065,1.6062,1.6062,1.6063,1.608,1.608,1.6081,1.6081,0,1.61,1.6096,1.6098,1.6099,1.6101,1.6102,1.6101,1.6103,1.6091,1.6094,1.6097,1.6098,1.61,1.6103,1.6102,1.6099,1.6089,1.6086,1.609,1.6094,1.6099,1.6097,1.6046,1.6085,1.6085,1.6085,1.6084,1.6084,1.6128,1.6134,1.6131,1.6135,1.6133,1.6133,1.6138,1.6133,1.6135,1.6137,1.6129,1.6135,1.6131,1.613,1.6128,1.6132,1.6125,1.6129,1.613,1.6132,1.6135,1.6097,1.6132,1.6132,1.6132,1.6131,1.6131,0,1.6164,1.6162,1.6165,1.6166,1.6169,1.6159,1.6158,1.6161,1.6166,1.6164,1.6166,1.617,1.6173,1.6166,1.6168,1.6173,1.6168,1.6174,1.6174,1.6173,1.6141,1.6138,1.6178,1.6178,1.6178,1.6178,1.6178,1.6178,1.6184,1.6194,1.619,1.6199,1.6196,1.6202,1.6203,1.6203,1.6201,1.6207,1.621,1.6206,1.6202,1.6204,1.6206,1.6204,1.6206,1.6213,1.621,1.618,1.6175,1.6171,1.6169,1.6214,1.6214,1.6242,1.6242,1.6242]}]]